This is the latest recevied weather packets stored in our database for station/object KA8DUX-2. If no packets are shown the sender has not sent any weather packets the latest 10 day(s).
| Time | Temp. | Humidity | Pressure | Rain* | Wind** | Luminosity | Snow |
|---|---|---|---|---|---|---|---|
| 1788555116 | 25° C | 90% | 1012.2 hPa | 0 mm | - | 176 W/m² | - |
| 1788554842 | 25° C | 91% | 1012.4 hPa | 0 mm | - | 177 W/m² | - |
| 1788554508 | 25° C | 90% | 1012.4 hPa | 0 mm | - | 190 W/m² | - |
| 1788554203 | 25° C | 91% | 1012.6 hPa | 0 mm | - | 192 W/m² | - |
| 1788553900 | 25° C | 91% | 1012.4 hPa | 0 mm | - | 197 W/m² | - |
| 1788553595 | 24.44° C | 91% | 1012.8 hPa | 0 mm | - | 198 W/m² | - |
| 1788553292 | 24.44° C | 92% | 1012.5 hPa | 0 mm | - | 196 W/m² | - |
| 1788552986 | 24.44° C | 91% | 1012.8 hPa | 0 mm | - | 198 W/m² | - |
| 1788552681 | 24.44° C | 91% | 1012.9 hPa | 0 mm | - | 211 W/m² | - |
| 1788552381 | 25° C | 92% | 1012.8 hPa | 0 mm | - | 239 W/m² | - |
| 1788552076 | 24.44° C | 92% | 1012.6 hPa | 0 mm | - | 239 W/m² | - |
| 1788551774 | 24.44° C | 94% | 1012.7 hPa | 0 mm | - | 224 W/m² | - |
| 1788551468 | 24.44° C | 95% | 1012.7 hPa | 0 mm | - | 217 W/m² | - |
| 1788551168 | 23.89° C | 96% | 1012.7 hPa | 0 mm | - | 203 W/m² | - |
| 1788550863 | 23.33° C | 96% | 1012.8 hPa | 0 mm | - | 201 W/m² | - |
| 1788550557 | 23.33° C | 98% | 1012.7 hPa | 0 mm | - | 207 W/m² | - |
| 1788550254 | 22.78° C | 99% | 1013 hPa | 0 mm | - | 216 W/m² | - |
| 1788549954 | 23.33° C | 99% | 1013.2 hPa | 0 mm | - | 229 W/m² | - |
| 1788549649 | 22.78° C | 99% | 1013.2 hPa | 0 mm | - | 245 W/m² | - |
| 1788549346 | 22.78° C | 99% | 1013 hPa | 0 mm | - | 244 W/m² | - |
| 1788549042 | 22.22° C | 99% | 1013.2 hPa | 0 mm | - | 242 W/m² | - |
| 1788548737 | 22.22° C | 99% | 1013.4 hPa | 0 mm | - | 231 W/m² | - |
| 1788548434 | 22.78° C | 99% | 1013.5 hPa | 0 mm | - | 235 W/m² | - |
| 1788548130 | 22.78° C | 99% | 1013.3 hPa | 0 mm | - | 233 W/m² | - |
| 1788547824 | 22.22° C | 99% | 1013.2 hPa | 0 mm | - | 207 W/m² | - |
* Rain latest hour (hover to see other rain measurements)
** Current wind speed in m/s (hover to see current wind gust speed)